Regional Weather Roundup
Issued by NWS

Home | Current Version | Previous Version | Graphics & Text | Print | Product List | Glossary On
Versions: 1 2 3 4 5 6 7 8 9 10 11 12 13 14 15 16 17 18 19 20 21 22 23 24 25 26 27 28 29 30 31 32 33 34 35 36 37 38 39 40 41 42 43 44 45 46 47 48 49 50
000
ASUS43 KFSD 292310
RWRSD

WEATHER ROUNDUP FOR SOUTH DAKOTA
NATIONAL WEATHER SERVICE SIOUX FALLS SD
600 PM CDT MON AUG 29 2016

NOTE: "FAIR" INDICATES FEW OR NO CLOUDS BELOW 12,000 FEET WITH NO
SIGNIFICANT WEATHER AND/OR OBSTRUCTIONS TO VISIBILITY.


SDZ001>005-009-010-012>017-300000-
NORTHWEST AND NORTH CENTRAL SOUTH DAKOTA

CITY           SKY/WX    TMP DP  RH WIND       PRES   REMARKS
BUFFALO          N/A     83  45  26 E14       30.18F
FAITH            N/A     85  47  26 E18       30.20S
MOBRIDGE       SUNNY     86  50  28 NE14      30.16R
$$

SDZ012>016-024>037-041>051-057-063-072>074-300000-
SOUTHWEST AND SOUTH CENTRAL SOUTH DAKOTA

CITY           SKY/WX    TMP DP  RH WIND       PRES   REMARKS
RAPID CTY ARPT SUNNY     83  58  42 N9        30.22F
PIERRE         MOSUNNY   90  65  43 NE14      30.10S
CUSTER         SUNNY     74  49  41 NE15G25   30.37S
ELLSWORTH AFB  SUNNY     82  57  42 E5        30.22F
PHILIP         CLOUDY    86  65  49 E13       30.14F
PINE RIDGE     MOSUNNY   84  60  44 E5        30.20S
WINNER         FAIR      88  67  49 SE12      30.13S
$$

SDZ004>011-016>023-039-040-300000-
NORTHEAST SOUTH DAKOTA

CITY           SKY/WX    TMP DP  RH WIND       PRES   REMARKS
ABERDEEN       SUNNY     84  68  58 NE14      30.14S
WATERTOWN      CLOUDY    85  70  60 S7        30.14S
BROOKINGS      PTSUNNY   84  70  62 S13       30.14S
SISSETON         N/A     86  71  60 NE10      30.12S
$$

SDZ017-020-022-023-036>040-048>070-300000-
SOUTHEAST SOUTH DAKOTA

CITY           SKY/WX    TMP DP  RH WIND       PRES   REMARKS
SIOUX FALLS    CLOUDY    82  69  64 S7        30.14S
HURON          MOSUNNY   88  69  53 S9        30.09S
CHAMBERLAIN    CLOUDY    89  69  51 SE8       30.10S
MITCHELL       CLOUDY    85  65  51 S12       30.11R
YANKTON        CLOUDY    81  66  61 SE9       30.12S
$$

ABBREVIATIONS USED IN REMARKS
   TC - TEMPERATURE IN CELSIUS
  WCI - WIND CHILL INDEX
   HX - HEAT INDEX
  VSB - VISIBILITY





USA.gov is the U.S. government's official web portal to all federal, state and local government web resources and services.